FW2418 Weather Reports


Display with metric or nautical units.
time (UTC)temp
F
wind
direction
speed
MPH
gust
MPH
rain 1hr
in
rain 24hr
in
rain mn
in
humidity
%
barometer
mb
20260507032753 74 172 0.0 0.0 0.00 0.00 0.00 76 1014.0
20260507031752 74 172 0.0 0.0 0.00 0.00 0.00 74 1014.0
20260507030751 75 182 0.0 2.0 0.00 0.00 0.00 73 1014.0
20260507025750 75 162 1.0 2.0 0.00 0.00 0.00 73 1014.0
20260507024749 75 170 0.0 1.0 0.00 0.00 0.00 71 1014.0
20260507023748 76 183 0.0 2.0 0.00 0.00 0.00 69 1014.0
20260507022645 76 156 0.0 2.0 0.00 0.00 0.00 68 1013.7
20260507021644 76 282 1.0 2.0 0.00 0.00 0.00 68 1013.7
20260507020643 77 181 0.0 2.0 0.00 0.00 0.00 67 1013.3
20260507015642 78 181 1.0 3.0 0.00 0.00 0.00 66 1013.3
20260507014610 78 148 1.0 4.0 0.00 0.00 0.00 64 1013.3
20260507013507 78 127 1.0 5.0 0.00 0.00 0.00 64 1013.3
20260507012506 79 163 2.0 5.0 0.00 0.00 0.00 62 1013.0
20260507011505 79 350 0.0 5.0 0.00 0.00 0.00 61 1013.0
20260507010505 80 145 2.0 5.0 0.00 0.00 0.00 59 1013.0
20260507005503 80 186 2.0 6.0 0.00 0.00 0.00 59 1013.0
20260507004502 81 80 1.0 8.0 0.00 0.00 0.00 58 1013.0
20260507003502 81 147 1.0 9.0 0.00 0.00 0.00 57 1012.6
20260507002500 82 129 1.0 6.0 0.00 0.00 0.00 57 1012.6
20260507001459 82 144 2.0 8.0 0.00 0.00 0.00 57 1012.6
20260507000459 83 154 2.0 8.0 0.00 0.00 0.00 56 1012.6
20260506235426 84 142 1.0 7.0 0.00 0.00 0.00 56 1012.6
20260506234425 84 169 2.0 8.0 0.00 0.00 0.00 55 1012.3
20260506233424 85 173 1.0 9.0 0.00 0.00 0.00 54 1012.3
20260506232424 86 118 3.0 9.0 0.00 0.00 0.00 53 1012.3
20260506231422 86 154 2.0 7.0 0.00 0.00 0.00 53 1012.3
20260506230421 87 179 3.0 10.0 0.00 0.00 0.00 52 1012.3
20260506225350 87 187 4.0 10.0 0.00 0.00 0.00 51 1012.3
20260506224349 88 153 3.0 12.0 0.00 0.00 0.00 51 1012.3
20260506223348 88 163 2.0 8.0 0.00 0.00 0.00 53 1012.3
20260506222347 89 119 2.0 9.0 0.00 0.00 0.00 52 1012.3
20260506221346 91 103 2.0 5.0 0.00 0.00 0.00 49 1012.3
20260506220345 91 133 3.0 6.0 0.00 0.00 0.00 42 1012.3
20260506215344 91 110 1.0 6.0 0.00 0.00 0.00 41 1012.3
20260506214343 91 220 1.0 6.0 0.00 0.00 0.00 41 1012.3
20260506213342 92 182 2.0 6.0 0.00 0.00 0.00 42 1012.3
20260506212341 91 207 1.0 5.0 0.00 0.00 0.00 43 1012.3
20260506211340 91 167 2.0 6.0 0.00 0.00 0.00 42 1012.3
20260506210308 91 252 1.0 8.0 0.00 0.00 0.00 42 1012.3
20260506205307 92 187 2.0 8.0 0.00 0.00 0.00 41 1012.3
20260506204306 92 196 2.0 5.0 0.00 0.00 0.00 41 1012.3
20260506203203 92 256 1.0 5.0 0.00 0.00 0.00 41 1012.6
20260506202202 93 195 1.0 7.0 0.00 0.00 0.00 40 1012.6
20260506201201 93 178 2.0 7.0 0.00 0.00 0.00 39 1012.6
20260506200200 93 161 3.0 6.0 0.00 0.00 0.00 39 1012.6
20260506195159 94 187 1.0 6.0 0.00 0.00 0.00 39 1012.6
20260506194158 94 177 3.0 7.0 0.00 0.00 0.00 37 1013.0
20260506193157 93 176 3.0 7.0 0.00 0.00 0.00 38 1013.0
20260506192156 93 178 2.0 8.0 0.00 0.00 0.00 39 1013.0
20260506191155 93 234 2.0 8.0 0.00 0.00 0.00 42 1013.3
20260506190154 93 157 1.0 8.0 0.00 0.00 0.00 42 1013.3
20260506185153 92 201 2.0 6.0 0.00 0.00 0.00 42 1013.3
20260506184153 93 285 2.0 6.0 0.00 0.00 0.00 41 1013.7
20260506183120 93 183 1.0 6.0 0.00 0.00 0.00 42 1013.7
20260506182119 92 150 1.0 7.0 0.00 0.00 0.00 44 1013.7
20260506181118 93 152 1.0 7.0 0.00 0.00 0.00 45 1014.0
20260506180118 92 199 2.0 6.0 0.00 0.00 0.00 45 1014.0
20260506175117 92 19 2.0 8.0 0.00 0.00 0.00 45 1014.0
20260506174115 92 115 3.0 8.0 0.00 0.00 0.00 46 1014.3
20260506173115 91 143 2.0 6.0 0.00 0.00 0.00 48 1014.3
20260506172114 90 112 2.0 7.0 0.00 0.00 0.00 50 1014.3
20260506171113 90 256 1.0 7.0 0.00 0.00 0.00 50 1014.7
20260506170112 90 139 2.0 5.0 0.00 0.00 0.00 50 1014.7
20260506165111 89 183 3.0 6.0 0.00 0.00 0.00 50 1015.0
20260506164039 88 170 2.0 6.0 0.00 0.00 0.00 51 1015.0
20260506163007 88 155 1.0 8.0 0.00 0.00 0.00 51 1015.0
20260506161935 87 188 2.0 8.0 0.00 0.00 0.00 52 1015.0
20260506160934 87 159 2.0 6.0 0.00 0.00 0.00 53 1015.0
20260506155933 87 172 2.0 6.0 0.00 0.00 0.00 56 1015.4
20260506154932 86 177 1.0 7.0 0.00 0.00 0.00 57 1015.3
20260506153931 86 137 3.0 7.0 0.00 0.00 0.00 58 1015.3
20260506152930 85 176 1.0 8.0 0.00 0.00 0.00 63 1015.0
20260506151929 84 227 2.0 9.0 0.00 0.00 0.00 65 1015.0
20260506150856 84 165 2.0 9.0 0.00 0.00 0.00 65 1015.0
20260506145824 83 189 2.0 5.0 0.00 0.00 0.00 66 1015.0
20260506144823 83 177 2.0 8.0 0.00 0.00 0.00 69 1015.3
20260506143822 82 178 1.0 9.0 0.00 0.00 0.00 71 1015.0
20260506142750 81 140 2.0 7.0 0.00 0.00 0.00 72 1015.0
20260506141749 81 186 3.0 8.0 0.00 0.00 0.00 72 1015.0
20260506140748 80 181 4.0 7.0 0.00 0.00 0.00 75 1015.3
20260506135747 80 186 2.0 7.0 0.00 0.00 0.00 76 1015.0
20260506134746 79 184 3.0 7.0 0.00 0.00 0.00 78 1015.0
20260506133715 79 206 1.0 6.0 0.00 0.00 0.00 79 1015.0
20260506132713 78 160 1.0 5.0 0.00 0.00 0.00 80 1014.7
20260506131712 77 163 3.0 5.0 0.00 0.00 0.00 82 1015.0
20260506130711 76 163 2.0 5.0 0.00 0.00 0.00 84 1015.0
20260506125710 74 169 2.0 5.0 0.00 0.00 0.00 86 1014.7
20260506124709 73 182 2.0 3.0 0.00 0.00 0.00 89 1014.7
20260506123708 71 167 0.0 1.0 0.00 0.00 0.00 92 1014.7
20260506122707 70 156 0.0 0.0 0.00 0.00 0.00 93 1014.7
20260506121604 68 124 0.0 0.0 0.00 0.00 0.00 94 1014.6
20260506120603 66 124 0.0 0.0 0.00 0.00 0.00 97 1014.6
20260506115602 64 124 0.0 0.0 0.00 0.00 0.00 98 1014.3
20260506114601 63 124 0.0 0.0 0.00 0.00 0.00 98 1014.3
20260506113600 62 124 0.0 0.0 0.00 0.00 0.00 98 1014.3
20260506112559 61 124 0.0 0.0 0.00 0.00 0.00 97 1014.3
20260506111559 61 124 0.0 0.0 0.00 0.00 0.00 98 1014.0
20260506110558 60 124 0.0 0.0 0.00 0.00 0.00 97 1014.0
20260506105557 60 124 0.0 0.0 0.00 0.00 0.00 97 1013.6
20260506104556 60 124 0.0 0.0 0.00 0.00 0.00 97 1013.6
20260506103555 60 124 0.0 0.0 0.00 0.00 0.00 97 1013.6
20260506102554 60 124 0.0 0.0 0.00 0.00 0.00 97 1013.6
20260506101553 60 124 0.0 0.0 0.00 0.00 0.00 97 1013.6
20260506100553 60 124 0.0 0.0 0.00 0.00 0.00 97 1013.6
20260506095521 60 124 0.0 0.0 0.00 0.00 0.00 97 1013.6
20260506094520 60 124 0.0 0.0 0.00 0.00 0.00 96 1013.6
20260506093519 60 124 0.0 0.0 0.00 0.00 0.00 97 1013.3
20260506092518 60 124 0.0 0.0 0.00 0.00 0.00 97 1013.6
20260506091517 60 124 0.0 0.0 0.00 0.00 0.00 96 1013.3
20260506090516 60 124 0.0 0.0 0.00 0.00 0.00 96 1013.3
20260506085515 60 124 0.0 0.0 0.00 0.00 0.00 96 1013.3
20260506084515 60 124 0.0 0.0 0.00 0.00 0.00 96 1013.3
20260506083514 60 124 0.0 0.0 0.00 0.00 0.00 96 1013.3
20260506082513 60 124 0.0 0.0 0.00 0.00 0.00 96 1013.3
20260506081513 60 124 0.0 0.0 0.00 0.00 0.00 96 1013.3
20260506080441 60 124 0.0 0.0 0.00 0.00 0.00 96 1013.3
20260506073438 60 124 0.0 0.0 0.00 0.00 0.00 95 1013.6
20260506072437 60 124 0.0 0.0 0.00 0.00 0.00 95 1013.6
20260506071436 60 124 0.0 0.0 0.00 0.00 0.00 95 1013.3
20260506070435 61 124 0.0 0.0 0.00 0.00 0.00 95 1013.3
20260506062401 61 124 0.0 0.0 0.00 0.00 0.00 94 1014.0
20260506061400 62 124 0.0 0.0 0.00 0.00 0.00 94 1014.0
20260506060359 62 124 0.0 0.0 0.00 0.00 0.00 94 1014.0
20260506051252 63 124 0.0 0.0 0.00 0.00 0.00 91 1014.3
20260506050251 63 124 0.0 0.0 0.00 0.00 0.00 91 1014.3
20260506044249 64 124 0.0 0.0 0.00 0.00 0.00 89 1014.7
20260506043248 65 124 0.0 0.0 0.00 0.00 0.00 89 1014.7
20260506042216 65 124 0.0 0.0 0.00 0.00 0.00 88 1014.7
20260506041113 65 124 0.0 0.0 0.00 0.00 0.00 88 1014.7
20260506040112 65 124 0.0 0.0 0.00 0.00 0.00 87 1014.3
20260506035111 65 124 0.0 0.0 0.00 0.00 0.00 86 1014.3
20260506034111 66 124 0.0 0.0 0.00 0.00 0.00 86 1014.3